,,,PA_Meas_PMT16A,,PR_Meas_QMR101_102,,RH_Meas_QMH101,,SR_Meas_QMS101,,TA_Meas_QMH101,,GenWind,,GenWind,
date,time,status,PA,status,PR,status,RH,status,SR,status,TA,status,DirAvg,status,SpdAvg,
2011-12-03, 00:00:04,VALID,1001.37,VALID,0,VALID,95.2847,VALID,0,VALID,24.3441,VALID,28,VALID,0.230469,
2011-12-03, 00:01:04,VALID,1001.38,VALID,0,VALID,95.3076,VALID,0.0815089,VALID,24.3441,VALID,28,VALID,0.211328,
2011-12-03, 00:02:04,VALID,1001.37,VALID,0,VALID,95.2618,VALID,0,VALID,24.3246,VALID,28,VALID,0.264062,
2011-12-03, 00:03:04,VALID,1001.35,VALID,0,VALID,95.3,VALID,0,VALID,24.3441,VALID,28,VALID,0.346875,
2011-12-03, 00:04:04,VALID,1001.35,VALID,0,VALID,95.3763,VALID,0,VALID,24.383,VALID,28,VALID,0.171094,
2011-12-03, 00:05:04,VALID,1001.33,VALID,0,VALID,95.3152,VALID,0,VALID,24.4025,VALID,28,VALID,0.258594,
2011-12-03, 00:06:04,VALID,1001.32,VALID,0,VALID,95.2923,VALID,0.0815089,VALID,24.4025,VALID,28,VALID,0.0910156,
2011-12-03, 00:07:04,VALID,1001.33,VALID,0,VALID,95.2618,VALID,0.0815089,VALID,24.4238,VALID,28,VALID,0.340234,
2011-12-03, 00:08:04,VALID,1001.33,VALID,0,VALID,95.2084,VALID,0.0815089,VALID,24.3812,VALID,28,VALID,0.489062,
2011-12-03, 00:09:04,VALID,1001.33,VALID,0,VALID,95.1093,VALID,0.0815089,VALID,24.3422,VALID,28,VALID,0.543359,
2011-12-03, 00:10:04,VALID,1001.31,VALID,0,VALID,95.0558,VALID,0.0815089,VALID,24.3636,VALID,28,VALID,0.493359,
2011-12-03, 00:11:04,VALID,1001.29,VALID,0,VALID,95.1016,VALID,0.0815089,VALID,24.3228,VALID,28,VALID,0.448828,
2011-12-03, 00:12:04,VALID,1001.26,VALID,0,VALID,95.1016,VALID,0,VALID,24.3052,VALID,25,VALID,0.623438,
2011-12-03, 00:13:04,VALID,1001.24,VALID,0,VALID,95.1169,VALID,0,VALID,24.3052,VALID,17,VALID,0.55625,
2011-12-03, 00:14:04,VALID,1001.26,VALID,0,VALID,95.1855,VALID,0.0815089,VALID,24.3246,VALID,13,VALID,0.604688,
2011-12-03, 00:15:04,VALID,1001.26,VALID,0,VALID,95.2313,VALID,0.0815089,VALID,24.3228,VALID,13,VALID,0.596094,
2011-12-03, 00:16:04,VALID,1001.26,VALID,0,VALID,95.2847,VALID,0,VALID,24.3654,VALID,12,VALID,0.661328,
2011-12-03, 00:17:04,VALID,1001.26,VALID,0,VALID,95.2618,VALID,0,VALID,24.3673,VALID,12,VALID,0.6875,
2011-12-03, 00:18:04,VALID,1001.3,VALID,0,VALID,95.2313,VALID,0,VALID,24.3459,VALID,12,VALID,0.706641,
2011-12-03, 00:19:04,VALID,1001.28,VALID,0,VALID,95.2618,VALID,0,VALID,24.3459,VALID,6,VALID,0.735937,
2011-12-03, 00:20:04,VALID,1001.29,VALID,0,VALID,95.2923,VALID,0,VALID,24.3441,VALID,360,VALID,0.7625,
2011-12-03, 00:21:04,VALID,1001.27,VALID,0,VALID,95.2542,VALID,0,VALID,24.3459,VALID,359,VALID,0.604688,
2011-12-03, 00:22:04,VALID,1001.27,VALID,0,VALID,95.2466,VALID,0,VALID,24.3246,VALID,359,VALID,0.543359,
2011-12-03, 00:23:04,VALID,1001.27,VALID,0,VALID,95.2771,VALID,0,VALID,24.3459,VALID,359,VALID,0.524219,
2011-12-03, 00:24:04,VALID,1001.26,VALID,0,VALID,95.3076,VALID,0,VALID,24.3849,VALID,359,VALID,0.427344,
2011-12-03, 00:25:04,VALID,1001.23,VALID,0,VALID,95.3305,VALID,0,VALID,24.3849,VALID,359,VALID,0.400781,
2011-12-03, 00:26:04,VALID,1001.24,VALID,0,VALID,95.361,VALID,0,VALID,24.4043,VALID,359,VALID,0.294531,
2011-12-03, 00:27:04,VALID,1001.25,VALID,0,VALID,95.361,VALID,0,VALID,24.4025,VALID,359,VALID,0.358594,
2011-12-03, 00:28:04,VALID,1001.25,VALID,0,VALID,95.3915,VALID,0,VALID,24.4433,VALID,359,VALID,0.339453,
2011-12-03, 00:29:04,VALID,1001.24,VALID,0,VALID,95.3686,VALID,0,VALID,24.4433,VALID,359,VALID,0.335156,
2011-12-03, 00:30:04,VALID,1001.25,VALID,0,VALID,95.3,VALID,0,VALID,24.4238,VALID,359,VALID,0.359766,
2011-12-03, 00:31:04,VALID,1001.25,VALID,0,VALID,95.2695,VALID,0.0815089,VALID,24.4025,VALID,359,VALID,0.480469,
2011-12-03, 00:32:04,VALID,1001.24,VALID,0,VALID,95.2771,VALID,0,VALID,24.4025,VALID,359,VALID,0.533203,
2011-12-03, 00:33:04,VALID,1001.24,VALID,0,VALID,95.2771,VALID,0,VALID,24.4025,VALID,359,VALID,0.470703,
2011-12-03, 00:34:04,VALID,1001.23,VALID,0,VALID,95.3,VALID,0,VALID,24.3812,VALID,359,VALID,0.498828,
2011-12-03, 00:35:04,VALID,1001.19,VALID,0,VALID,95.3229,VALID,0,VALID,24.3812,VALID,359,VALID,0.476172,
2011-12-03, 00:36:04,VALID,1001.19,VALID,0,VALID,95.3686,VALID,0,VALID,24.4414,VALID,359,VALID,0.364844,
2011-12-03, 00:37:04,VALID,1001.17,VALID,0,VALID,95.3686,VALID,0.0815089,VALID,24.422,VALID,359,VALID,0.355469,
2011-12-03, 00:38:04,VALID,1001.15,VALID,0,VALID,95.3839,VALID,0,VALID,24.4414,VALID,359,VALID,0.481641,
2011-12-03, 00:39:04,VALID,1001.16,VALID,0,VALID,95.3839,VALID,0.0815089,VALID,24.4201,VALID,359,VALID,0.378516,
2011-12-03, 00:40:04,VALID,1001.11,VALID,0,VALID,95.3457,VALID,0,VALID,24.4396,VALID,359,VALID,0.355859,
2011-12-03, 00:41:04,VALID,1001.11,VALID,0,VALID,95.3686,VALID,0.0815089,VALID,24.4414,VALID,359,VALID,0.241797,
2011-12-03, 00:42:04,VALID,1001.11,VALID,0,VALID,95.3839,VALID,0,VALID,24.4822,VALID,359,VALID,0.171875,
2011-12-03, 00:43:04,VALID,1001.08,VALID,0,VALID,95.3763,VALID,0.0815089,VALID,24.4804,VALID,359,VALID,0.321094,
2011-12-03, 00:44:04,VALID,1001.08,VALID,0,VALID,95.4373,VALID,0.0815089,VALID,24.4998,VALID,359,VALID,0.239844,
2011-12-03, 00:45:04,VALID,1001.07,VALID,0,VALID,95.4297,VALID,0,VALID,24.5193,VALID,359,VALID,0.217578,
2011-12-03, 00:46:04,VALID,1001.06,VALID,0,VALID,95.4297,VALID,0,VALID,24.5212,VALID,359,VALID,0.254687,
2011-12-03, 00:47:04,VALID,1001.07,VALID,0,VALID,95.4144,VALID,0,VALID,24.5193,VALID,359,VALID,0.402344,
2011-12-03, 00:48:04,VALID,1001.06,VALID,0,VALID,95.4144,VALID,0,VALID,24.5388,VALID,359,VALID,0.258203,
2011-12-03, 00:49:04,VALID,1001.07,VALID,0,VALID,95.3991,VALID,0,VALID,24.5193,VALID,359,VALID,0.428516,
2011-12-03, 00:50:04,VALID,1001.06,VALID,0,VALID,95.3915,VALID,0,VALID,24.5193,VALID,359,VALID,0.373437,
2011-12-03, 00:51:04,VALID,1001.05,VALID,0,VALID,95.3457,VALID,0,VALID,24.5193,VALID,359,VALID,0.448828,
2011-12-03, 00:52:04,VALID,1001.09,VALID,0,VALID,95.3305,VALID,0,VALID,24.4998,VALID,359,VALID,0.317578,
2011-12-03, 00:53:04,VALID,1001.06,VALID,0,VALID,95.3534,VALID,0,VALID,24.5193,VALID,359,VALID,0.346094,
2011-12-03, 00:54:04,VALID,1001.08,VALID,0,VALID,95.3534,VALID,0,VALID,24.5388,VALID,359,VALID,0.23125,
2011-12-03, 00:55:04,VALID,1001.06,VALID,0,VALID,95.3534,VALID,0,VALID,24.5406,VALID,359,VALID,0.225,
2011-12-03, 00:56:04,VALID,1001.04,VALID,0,VALID,95.3763,VALID,0,VALID,24.5388,VALID,359,VALID,0.203516,
2011-12-03, 00:57:04,VALID,1001.02,VALID,0,VALID,95.4068,VALID,0,VALID,24.5388,VALID,359,VALID,0.253906,
2011-12-03, 00:58:04,VALID,1000.97,VALID,0,VALID,95.422,VALID,0,VALID,24.5582,VALID,359,VALID,0.249219,
2011-12-03, 00:59:04,VALID,1000.96,VALID,0,VALID,95.422,VALID,0.0815089,VALID,24.5777,VALID,359,VALID,0.217187,
2011-12-03, 01:00:04,VALID,1000.95,VALID,0,VALID,95.4373,VALID,0.0815089,VALID,24.5777,VALID,359,VALID,0.319922,
2011-12-03, 01:01:04,VALID,1000.89,VALID,0,VALID,95.4297,VALID,0,VALID,24.6185,VALID,359,VALID,0.24375,
2011-12-03, 01:02:04,VALID,1000.88,VALID,0,VALID,95.422,VALID,0,VALID,24.5972,VALID,359,VALID,0.226172,
2011-12-03, 01:03:04,VALID,1000.85,VALID,0,VALID,95.4297,VALID,0,VALID,24.5972,VALID,359,VALID,0.307813,
2011-12-03, 01:04:04,VALID,1000.85,VALID,0,VALID,95.4068,VALID,0,VALID,24.6166,VALID,359,VALID,0.361719,
2011-12-03, 01:05:04,VALID,1000.86,VALID,0,VALID,95.3839,VALID,0.0815089,VALID,24.5972,VALID,359,VALID,0.411719,
2011-12-03, 01:06:04,VALID,1000.83,VALID,0,VALID,95.3763,VALID,0,VALID,24.5972,VALID,359,VALID,0.458984,
2011-12-03, 01:07:04,VALID,1000.84,VALID,0,VALID,95.361,VALID,0,VALID,24.5777,VALID,359,VALID,0.422266,
2011-12-03, 01:08:04,VALID,1000.81,VALID,0,VALID,95.361,VALID,0,VALID,24.5777,VALID,359,VALID,0.241016,
2011-12-03, 01:09:04,VALID,1000.8,VALID,0,VALID,95.3457,VALID,0,VALID,24.5777,VALID,359,VALID,0.210938,
2011-12-03, 01:10:04,VALID,1000.81,VALID,0,VALID,95.3152,VALID,0,VALID,24.599,VALID,359,VALID,0.115234,
2011-12-03, 01:11:04,VALID,1000.8,VALID,0,VALID,95.3305,VALID,0.0815089,VALID,24.5582,VALID,359,VALID,0.191406,
2011-12-03, 01:12:04,VALID,1000.82,VALID,0,VALID,95.3763,VALID,0,VALID,24.5777,VALID,359,VALID,0.1625,
2011-12-03, 01:13:04,VALID,1000.82,VALID,0,VALID,95.3839,VALID,0.0815089,VALID,24.5777,VALID,359,VALID,0.229687,
2011-12-03, 01:14:04,VALID,1000.81,VALID,0,VALID,95.3991,VALID,0.0815089,VALID,24.5777,VALID,359,VALID,0.263672,
2011-12-03, 01:15:04,VALID,1000.8,VALID,0,VALID,95.4068,VALID,0,VALID,24.5777,VALID,359,VALID,0.235547,
2011-12-03, 01:16:04,VALID,1000.77,VALID,0,VALID,95.3991,VALID,0,VALID,24.5777,VALID,359,VALID,0.217187,
2011-12-03, 01:17:04,VALID,1000.74,VALID,0,VALID,95.3991,VALID,0,VALID,24.5777,VALID,359,VALID,0.182031,
2011-12-03, 01:18:04,VALID,1000.77,VALID,0,VALID,95.3763,VALID,0,VALID,24.5796,VALID,359,VALID,0.233984,
2011-12-03, 01:19:04,VALID,1000.72,VALID,0,VALID,95.361,VALID,0,VALID,24.5582,VALID,359,VALID,0.190234,
2011-12-03, 01:20:04,VALID,1000.74,VALID,0,VALID,95.3763,VALID,0,VALID,24.5582,VALID,359,VALID,0.277344,
2011-12-03, 01:21:04,VALID,1000.75,VALID,0,VALID,95.3686,VALID,0,VALID,24.5388,VALID,359,VALID,0.399609,
2011-12-03, 01:22:04,VALID,1000.76,VALID,0,VALID,95.3763,VALID,0.0815089,VALID,24.5388,VALID,359,VALID,0.339063,
2011-12-03, 01:23:04,VALID,1000.77,VALID,0,VALID,95.361,VALID,0,VALID,24.5388,VALID,359,VALID,0.297266,
2011-12-03, 01:24:04,VALID,1000.75,VALID,0,VALID,95.3457,VALID,0,VALID,24.5193,VALID,359,VALID,0.00585938,
2011-12-03, 01:25:04,VALID,1000.73,VALID,0,VALID,95.3686,VALID,0,VALID,24.5388,VALID,359,VALID,0.180859,
2011-12-03, 01:26:04,VALID,1000.74,VALID,0,VALID,95.3915,VALID,0,VALID,24.5174,VALID,359,VALID,0.163281,
2011-12-03, 01:27:04,VALID,1000.74,VALID,0,VALID,95.3991,VALID,0,VALID,24.5369,VALID,359,VALID,0.185547,
2011-12-03, 01:28:04,VALID,1000.71,VALID,0,VALID,95.3839,VALID,0.0815089,VALID,24.5388,VALID,359,VALID,0.205078,
2011-12-03, 01:29:04,VALID,1000.68,VALID,0,VALID,95.3839,VALID,0,VALID,24.5193,VALID,359,VALID,0.101172,
2011-12-03, 01:30:04,VALID,1000.67,VALID,0,VALID,95.3763,VALID,0.0815089,VALID,24.5388,VALID,359,VALID,0,
2011-12-03, 01:31:04,VALID,1000.63,VALID,0,VALID,95.3457,VALID,0,VALID,24.4998,VALID,359,VALID,0.1375,
2011-12-03, 01:32:04,VALID,1000.62,VALID,0,VALID,95.3381,VALID,0,VALID,24.4998,VALID,359,VALID,0.240234,
2011-12-03, 01:33:04,VALID,1000.6,VALID,0,VALID,95.3381,VALID,0.0815089,VALID,24.4785,VALID,359,VALID,0.225391,
2011-12-03, 01:34:04,VALID,1000.59,VALID,0,VALID,95.3305,VALID,0,VALID,24.4804,VALID,359,VALID,0.192969,
2011-12-03, 01:35:04,VALID,1000.59,VALID,0,VALID,95.3763,VALID,0,VALID,24.4822,VALID,359,VALID,0.388672,
2011-12-03, 01:36:04,VALID,1000.54,VALID,0,VALID,95.3839,VALID,0.0815089,VALID,24.4804,VALID,359,VALID,0.416406,
2011-12-03, 01:37:04,VALID,1000.53,VALID,0,VALID,95.3763,VALID,0.0815089,VALID,24.4609,VALID,359,VALID,0.334766,
2011-12-03, 01:38:04,VALID,1000.52,VALID,0,VALID,95.3991,VALID,0,VALID,24.4804,VALID,359,VALID,0.225391,
2011-12-03, 01:39:04,VALID,1000.5,VALID,0,VALID,95.4602,VALID,0,VALID,24.4998,VALID,359,VALID,0.248828,
2011-12-03, 01:40:04,VALID,1000.51,VALID,0,VALID,95.4526,VALID,0.0815089,VALID,24.5193,VALID,359,VALID,0.210156,
2011-12-03, 01:41:04,VALID,1000.53,VALID,0,VALID,95.4907,VALID,0.0815089,VALID,24.5388,VALID,359,VALID,0.214062,
2011-12-03, 01:42:04,VALID,1000.52,VALID,0,VALID,95.5441,VALID,0,VALID,24.5777,VALID,359,VALID,0.355469,
2011-12-03, 01:43:04,VALID,1000.53,VALID,0,VALID,95.5212,VALID,0,VALID,24.5777,VALID,359,VALID,0.436719,
2011-12-03, 01:44:04,VALID,1000.57,VALID,0,VALID,95.4983,VALID,0,VALID,24.5777,VALID,359,VALID,0.4125,
2011-12-03, 01:45:04,VALID,1000.55,VALID,0,VALID,95.4373,VALID,0,VALID,24.5582,VALID,359,VALID,0.448047,
2011-12-03, 01:46:04,VALID,1000.5,VALID,0,VALID,95.361,VALID,0,VALID,24.5193,VALID,359,VALID,0.378906,
2011-12-03, 01:47:04,VALID,1000.47,VALID,0,VALID,95.3457,VALID,0,VALID,24.5193,VALID,359,VALID,0.370313,
2011-12-03, 01:48:04,VALID,1000.47,VALID,0,VALID,95.361,VALID,0,VALID,24.4998,VALID,359,VALID,0.367969,
2011-12-03, 01:49:04,VALID,1000.46,VALID,0,VALID,95.3763,VALID,0,VALID,24.4998,VALID,359,VALID,0.359766,
2011-12-03, 01:50:04,VALID,1000.45,VALID,0,VALID,95.3686,VALID,0,VALID,24.4804,VALID,359,VALID,0.3,
2011-12-03, 01:51:04,VALID,1000.44,VALID,0,VALID,95.3915,VALID,0,VALID,24.5017,VALID,359,VALID,0.262891,
2011-12-03, 01:52:04,VALID,1000.44,VALID,0,VALID,95.3991,VALID,0,VALID,24.5017,VALID,359,VALID,0.344141,
2011-12-03, 01:53:04,VALID,1000.42,VALID,0,VALID,95.4144,VALID,0,VALID,24.4804,VALID,359,VALID,0.422656,
2011-12-03, 01:54:04,VALID,1000.42,VALID,0,VALID,95.4144,VALID,0,VALID,24.5212,VALID,359,VALID,0.501172,
2011-12-03, 01:55:04,VALID,1000.39,VALID,0,VALID,95.4144,VALID,0,VALID,24.4998,VALID,359,VALID,0.447656,
2011-12-03, 01:56:04,VALID,1000.39,VALID,0,VALID,95.4068,VALID,0,VALID,24.5017,VALID,359,VALID,0.465234,
2011-12-03, 01:57:04,VALID,1000.37,VALID,0,VALID,95.3991,VALID,0,VALID,24.4822,VALID,359,VALID,0.530859,
2011-12-03, 01:58:04,VALID,1000.33,VALID,0,VALID,95.4144,VALID,0,VALID,24.4609,VALID,359,VALID,0.490234,
2011-12-03, 01:59:04,VALID,1000.34,VALID,0,VALID,95.4144,VALID,0,VALID,24.4822,VALID,359,VALID,0.557422,
2011-12-03, 02:00:04,VALID,1000.33,VALID,0,VALID,95.4449,VALID,0,VALID,24.4609,VALID,359,VALID,0.491406,
2011-12-03, 02:01:04,VALID,1000.28,VALID,0,VALID,95.4373,VALID,0,VALID,24.4822,VALID,359,VALID,0.45,
2011-12-03, 02:02:04,VALID,1000.27,VALID,0,VALID,95.4449,VALID,0,VALID,24.4822,VALID,359,VALID,0.461719,
2011-12-03, 02:03:04,VALID,1000.24,VALID,0,VALID,95.4526,VALID,0,VALID,24.4822,VALID,359,VALID,0.416406,
2011-12-03, 02:04:04,VALID,1000.22,VALID,0,VALID,95.4678,VALID,0,VALID,24.4822,VALID,359,VALID,0.402344,
2011-12-03, 02:05:04,VALID,1000.22,VALID,0,VALID,95.4602,VALID,0,VALID,24.4822,VALID,359,VALID,0.490234,
2011-12-03, 02:06:04,VALID,1000.19,VALID,0,VALID,95.4526,VALID,0,VALID,24.4628,VALID,359,VALID,0.542188,
2011-12-03, 02:07:04,VALID,1000.18,VALID,0,VALID,95.4602,VALID,0,VALID,24.4609,VALID,359,VALID,0.542969,
2011-12-03, 02:08:04,VALID,1000.19,VALID,0,VALID,95.4983,VALID,0,VALID,24.4628,VALID,359,VALID,0.563281,
2011-12-03, 02:09:04,VALID,1000.17,VALID,0,VALID,95.4602,VALID,0,VALID,24.422,VALID,359,VALID,0.517578,
2011-12-03, 02:10:04,VALID,1000.17,VALID,0,VALID,95.4526,VALID,0,VALID,24.4414,VALID,359,VALID,0.466406,
2011-12-03, 02:11:04,VALID,1000.13,VALID,0,VALID,95.4983,VALID,0,VALID,24.4414,VALID,359,VALID,0.485938,
2011-12-03, 02:12:04,VALID,1000.1,VALID,0,VALID,95.5288,VALID,0,VALID,24.4609,VALID,359,VALID,0.452344,
2011-12-03, 02:13:04,VALID,1000.09,VALID,0,VALID,95.5365,VALID,0,VALID,24.4628,VALID,359,VALID,0.462891,
2011-12-03, 02:14:04,VALID,1000.08,VALID,0,VALID,95.5441,VALID,0,VALID,24.4609,VALID,359,VALID,0.351563,
2011-12-03, 02:15:04,VALID,1000.09,VALID,0,VALID,95.506,VALID,0,VALID,24.4609,VALID,359,VALID,0.0675781,
2011-12-03, 02:16:04,VALID,1000.06,VALID,0,VALID,95.506,VALID,0,VALID,24.4628,VALID,359,VALID,0,
2011-12-03, 02:17:04,VALID,1000.03,VALID,0,VALID,95.4907,VALID,0,VALID,24.4414,VALID,359,VALID,0,
2011-12-03, 02:18:04,VALID,1000.04,VALID,0,VALID,95.4907,VALID,0,VALID,24.4414,VALID,359,VALID,0,
2011-12-03, 02:19:04,VALID,1000.03,VALID,0,VALID,95.4678,VALID,0,VALID,24.4433,VALID,359,VALID,0,
2011-12-03, 02:20:04,VALID,1000,VALID,0,VALID,95.5136,VALID,0,VALID,24.4414,VALID,359,VALID,0,
2011-12-03, 02:21:04,VALID,999.999,VALID,0,VALID,95.5594,VALID,0,VALID,24.4804,VALID,359,VALID,0.148047,
2011-12-03, 02:22:04,VALID,999.989,VALID,0,VALID,95.5517,VALID,0,VALID,24.4609,VALID,359,VALID,0,
2011-12-03, 02:23:04,VALID,1000.03,VALID,0,VALID,95.5441,VALID,0,VALID,24.4804,VALID,359,VALID,0,
2011-12-03, 02:24:04,VALID,999.992,VALID,0,VALID,95.5288,VALID,0,VALID,24.4609,VALID,359,VALID,0,
2011-12-03, 02:25:04,VALID,999.993,VALID,0,VALID,95.5136,VALID,0,VALID,24.4822,VALID,359,VALID,0,
2011-12-03, 02:26:04,VALID,999.989,VALID,0,VALID,95.5136,VALID,0,VALID,24.4609,VALID,359,VALID,0,
2011-12-03, 02:27:04,VALID,999.975,VALID,0,VALID,95.5136,VALID,0,VALID,24.4628,VALID,359,VALID,0,
2011-12-03, 02:28:04,VALID,999.974,VALID,0,VALID,95.4831,VALID,0,VALID,24.4396,VALID,359,VALID,0,
2011-12-03, 02:29:04,VALID,999.992,VALID,0,VALID,95.4983,VALID,0,VALID,24.4201,VALID,359,VALID,0,
2011-12-03, 02:30:04,VALID,999.973,VALID,0,VALID,95.5212,VALID,0,VALID,24.4609,VALID,359,VALID,0,
2011-12-03, 02:31:04,VALID,999.972,VALID,0,VALID,95.5822,VALID,0.0815089,VALID,24.4785,VALID,359,VALID,0.216797,
2011-12-03, 02:32:04,VALID,999.999,VALID,0,VALID,95.5746,VALID,0,VALID,24.4998,VALID,359,VALID,0.20625,
2011-12-03, 02:33:04,VALID,999.975,VALID,0,VALID,95.5822,VALID,0,VALID,24.4998,VALID,359,VALID,0.165234,
2011-12-03, 02:34:04,VALID,999.99,VALID,0,VALID,95.567,VALID,0,VALID,24.4998,VALID,359,VALID,0.276172,
2011-12-03, 02:35:04,VALID,999.965,VALID,0,VALID,95.4907,VALID,0,VALID,24.5017,VALID,359,VALID,0.460156,
2011-12-03, 02:36:04,VALID,999.982,VALID,0,VALID,95.4297,VALID,0,VALID,24.4414,VALID,359,VALID,0.589063,
2011-12-03, 02:37:04,VALID,999.957,VALID,0,VALID,95.3839,VALID,0,VALID,24.4025,VALID,359,VALID,0.525781,
2011-12-03, 02:38:04,VALID,999.933,VALID,0,VALID,95.3763,VALID,0,VALID,24.4238,VALID,359,VALID,0.55,
2011-12-03, 02:39:04,VALID,999.903,VALID,0,VALID,95.4373,VALID,0,VALID,24.383,VALID,358,VALID,0.621875,
2011-12-03, 02:40:04,VALID,999.905,VALID,0,VALID,95.4449,VALID,0,VALID,24.4025,VALID,357,VALID,0.678125,
2011-12-03, 02:41:04,VALID,999.898,VALID,0,VALID,95.4526,VALID,0,VALID,24.4043,VALID,357,VALID,0.571875,
2011-12-03, 02:42:04,VALID,999.899,VALID,0,VALID,95.4831,VALID,0,VALID,24.383,VALID,357,VALID,0.667578,
2011-12-03, 02:43:04,VALID,999.875,VALID,0,VALID,95.5136,VALID,0,VALID,24.4043,VALID,357,VALID,0.608594,
2011-12-03, 02:44:04,VALID,999.889,VALID,0,VALID,95.5212,VALID,0,VALID,24.383,VALID,357,VALID,0.448438,
2011-12-03, 02:45:04,VALID,999.884,VALID,0,VALID,95.506,VALID,0,VALID,24.383,VALID,357,VALID,0.415625,
2011-12-03, 02:46:04,VALID,999.88,VALID,0,VALID,95.4907,VALID,0,VALID,24.383,VALID,357,VALID,0.411719,
2011-12-03, 02:47:04,VALID,999.845,VALID,0,VALID,95.4754,VALID,0,VALID,24.3617,VALID,357,VALID,0.382031,
2011-12-03, 02:48:04,VALID,999.834,VALID,0,VALID,95.4754,VALID,0,VALID,24.383,VALID,357,VALID,0.274219,
2011-12-03, 02:49:04,VALID,999.827,VALID,0,VALID,95.4678,VALID,0.0815089,VALID,24.3636,VALID,357,VALID,0.226172,
2011-12-03, 02:50:04,VALID,999.81,VALID,0,VALID,95.4449,VALID,0.0815089,VALID,24.3228,VALID,357,VALID,0.174609,
2011-12-03, 02:51:04,VALID,999.812,VALID,0,VALID,95.506,VALID,0.0815089,VALID,24.3636,VALID,357,VALID,0.263672,
2011-12-03, 02:52:04,VALID,999.807,VALID,0,VALID,95.5288,VALID,0.0815089,VALID,24.3636,VALID,357,VALID,0.433984,
2011-12-03, 02:53:04,VALID,999.82,VALID,0,VALID,95.5365,VALID,0.0815089,VALID,24.383,VALID,357,VALID,0.398047,
2011-12-03, 02:54:04,VALID,999.808,VALID,0,VALID,95.5365,VALID,0.0815089,VALID,24.383,VALID,357,VALID,0.363672,
2011-12-03, 02:55:04,VALID,999.797,VALID,0,VALID,95.5441,VALID,0,VALID,24.383,VALID,357,VALID,0.372266,
2011-12-03, 02:56:04,VALID,999.785,VALID,0,VALID,95.5136,VALID,0.0815089,VALID,24.3849,VALID,357,VALID,0.264844,
2011-12-03, 02:57:04,VALID,999.807,VALID,0,VALID,95.4907,VALID,0.0815089,VALID,24.3636,VALID,357,VALID,0.258203,
2011-12-03, 02:58:04,VALID,999.798,VALID,0,VALID,95.4983,VALID,0.0815089,VALID,24.3441,VALID,357,VALID,0.207031,
2011-12-03, 02:59:04,VALID,999.809,VALID,0,VALID,95.4907,VALID,0.0815089,VALID,24.3246,VALID,357,VALID,0.255859,
2011-12-03, 03:00:04,VALID,999.813,VALID,0,VALID,95.4831,VALID,0,VALID,24.3033,VALID,357,VALID,0.240234,
2011-12-03, 03:01:04,VALID,999.781,VALID,0,VALID,95.4907,VALID,0.0815089,VALID,24.3033,VALID,357,VALID,0.359375,
2011-12-03, 03:02:04,VALID,999.808,VALID,0,VALID,95.5212,VALID,0.0815089,VALID,24.3441,VALID,357,VALID,0.393359,
2011-12-03, 03:03:04,VALID,999.8,VALID,0,VALID,95.506,VALID,0.0815089,VALID,24.3246,VALID,357,VALID,0.394922,
2011-12-03, 03:04:04,VALID,999.792,VALID,0,VALID,95.5136,VALID,0.0815089,VALID,24.3246,VALID,357,VALID,0.420703,
2011-12-03, 03:05:04,VALID,999.805,VALID,0,VALID,95.5212,VALID,0.0815089,VALID,24.3033,VALID,357,VALID,0.355859,
2011-12-03, 03:06:04,VALID,999.801,VALID,0,VALID,95.4678,VALID,0.0815089,VALID,24.3052,VALID,357,VALID,0.529297,
2011-12-03, 03:07:04,VALID,999.803,VALID,0,VALID,95.4449,VALID,0,VALID,24.2857,VALID,357,VALID,0.585156,
2011-12-03, 03:08:04,VALID,999.802,VALID,0,VALID,95.4526,VALID,0,VALID,24.2255,VALID,357,VALID,0.560547,
2011-12-03, 03:09:04,VALID,999.788,VALID,0,VALID,95.4449,VALID,0,VALID,24.2468,VALID,357,VALID,0.708203,
2011-12-03, 03:10:04,VALID,999.789,VALID,0,VALID,95.4602,VALID,0.0815089,VALID,24.2273,VALID,356,VALID,0.677344,
2011-12-03, 03:11:04,VALID,999.768,VALID,0,VALID,95.4907,VALID,0.0815089,VALID,24.2273,VALID,354,VALID,0.583594,
2011-12-03, 03:12:04,VALID,999.785,VALID,0,VALID,95.5212,VALID,0,VALID,24.2273,VALID,354,VALID,0.546484,
2011-12-03, 03:13:04,VALID,999.758,VALID,0,VALID,95.567,VALID,0.0815089,VALID,24.2468,VALID,354,VALID,0.603516,
2011-12-03, 03:14:04,VALID,999.76,VALID,0,VALID,95.5975,VALID,0.0815089,VALID,24.2662,VALID,354,VALID,0.553906,
2011-12-03, 03:15:04,VALID,999.748,VALID,0,VALID,95.5746,VALID,0.0815089,VALID,24.2662,VALID,354,VALID,0.585547,
2011-12-03, 03:16:04,VALID,999.78,VALID,0,VALID,95.567,VALID,0,VALID,24.2662,VALID,354,VALID,0.514063,
2011-12-03, 03:17:04,VALID,999.783,VALID,0,VALID,95.5746,VALID,0.0815089,VALID,24.2468,VALID,354,VALID,0.460156,
2011-12-03, 03:18:04,VALID,999.767,VALID,0,VALID,95.5365,VALID,0,VALID,24.206,VALID,354,VALID,0.514063,
2011-12-03, 03:19:04,VALID,999.776,VALID,0,VALID,95.5365,VALID,0.0815089,VALID,24.2486,VALID,354,VALID,0.428906,
2011-12-03, 03:20:04,VALID,999.774,VALID,0,VALID,95.5288,VALID,0,VALID,24.206,VALID,354,VALID,0.471484,
2011-12-03, 03:21:04,VALID,999.778,VALID,0,VALID,95.5212,VALID,0,VALID,24.2078,VALID,354,VALID,0.465234,
2011-12-03, 03:22:04,VALID,999.8,VALID,0,VALID,95.5441,VALID,0,VALID,24.2078,VALID,354,VALID,0.479297,
2011-12-03, 03:23:04,VALID,999.798,VALID,0,VALID,95.5517,VALID,0.0815089,VALID,24.2078,VALID,354,VALID,0.611719,
2011-12-03, 03:24:04,VALID,999.814,VALID,0,VALID,95.5517,VALID,0.0815089,VALID,24.2078,VALID,354,VALID,0.612109,
2011-12-03, 03:25:04,VALID,999.835,VALID,0,VALID,95.5746,VALID,0.0815089,VALID,24.1884,VALID,354,VALID,0.585547,
2011-12-03, 03:26:04,VALID,999.857,VALID,0,VALID,95.5594,VALID,0.0815089,VALID,24.2291,VALID,354,VALID,0.465234,
2011-12-03, 03:27:04,VALID,999.839,VALID,0,VALID,95.5594,VALID,0.0815089,VALID,24.1671,VALID,354,VALID,0.572266,
2011-12-03, 03:28:04,VALID,999.854,VALID,0,VALID,95.5746,VALID,0,VALID,24.1884,VALID,354,VALID,0.608984,
2011-12-03, 03:29:04,VALID,999.856,VALID,0,VALID,95.5746,VALID,0.0815089,VALID,24.1884,VALID,354,VALID,0.568359,
2011-12-03, 03:30:04,VALID,999.869,VALID,0,VALID,95.5594,VALID,0.0815089,VALID,24.1689,VALID,354,VALID,0.627734,
2011-12-03, 03:31:04,VALID,999.878,VALID,0,VALID,95.5517,VALID,0,VALID,24.1494,VALID,354,VALID,0.549219,
2011-12-03, 03:32:04,VALID,999.896,VALID,0,VALID,95.5441,VALID,0,VALID,24.1494,VALID,354,VALID,0.380078,
2011-12-03, 03:33:04,VALID,999.916,VALID,0,VALID,95.5365,VALID,0,VALID,24.13,VALID,354,VALID,0.338281,
2011-12-03, 03:34:04,VALID,999.921,VALID,0,VALID,95.5365,VALID,0.0815089,VALID,24.13,VALID,354,VALID,0.230469,
2011-12-03, 03:35:04,VALID,999.934,VALID,0,VALID,95.567,VALID,0.0815089,VALID,24.1105,VALID,354,VALID,0.109766,
2011-12-03, 03:36:04,VALID,999.934,VALID,0,VALID,95.5822,VALID,0.0815089,VALID,24.1087,VALID,354,VALID,0,
2011-12-03, 03:37:04,VALID,999.929,VALID,0,VALID,95.5822,VALID,0.0815089,VALID,24.13,VALID,354,VALID,0,
2011-12-03, 03:38:04,VALID,999.948,VALID,0,VALID,95.5822,VALID,0.0815089,VALID,24.0892,VALID,354,VALID,0,
2011-12-03, 03:39:04,VALID,999.975,VALID,0,VALID,95.5899,VALID,0.0815089,VALID,24.0892,VALID,354,VALID,0,
2011-12-03, 03:40:04,VALID,999.947,VALID,0,VALID,95.5975,VALID,0.0815089,VALID,24.0892,VALID,354,VALID,0,